Location: Oulou
(10.7667°N, 12.5167°W)
Time: 04:21:40
(UTC+00:00)

Cosmos 2227 Rocket - Pass Details

Date: 20 September 2019
Orbit: 837 x 847 km, 71.0° (Epoch: 17 October)

Event Time Altitude Azimuth Distance (km) Brightness Sun altitude
Rises 20:03:36 0° 207° (SSW) 3,379 5.6 -19.5°
Reaches altitude 10° 20:06:06 10° 212° (SSW) 2,446 4.9 -20.1°
Maximum altitude 20:11:31 50° 287° (WNW) 1,059 3.1 -21.4°
Drops below altitude 10° 20:16:57 10° 2° (N) 2,450 4.6 -22.7°
Sets 20:19:28 0° 7° (N) 3,386 5.3 -23.3°
